Back to catalog

STARLINK-34267

AliveCommunicationsVLEO
NORAD 65080·PAYLOAD·🇺🇸 United States

Launched Aug 4, 2025 from Cape Canaveral Space Force Station

Loading…

Next Passes (next 24 hours)

TLE

FreshSource: CelesTrak SupGP

Epoch: Sep 15, 2026, 02:56 UTC

1 65080C 25167C   26258.12270833 -.00043548  00000+0 -12867-2 0  2588
2 65080  53.1575 220.5347 0001414  87.8602 190.4919 15.34410636    18

Track STARLINK-34267 in real time with AllMySat

Download on the App Store